Theta_e
339 339 342 341 341 341 341 343 341 337 337 339 342 343 343 344 343 343 344 342 340 337 337 337 337 338 337 336 334 338 339 339 340 342 341 339 334 331
341 340 339 339 333 339 339 340 341 340 336 339 341 341 341 342 342 341 339 341 340 338 337 336 337 337 336 330 331 330 328 328 329 329 330 330 329 327
340 336 334 331 332 337 340 338 339 337 337 340 338 341 340 341 340 338 337 338 339 337 337 336 337 336 331 332 333 332 331 331 330 328 323 320 317 316
338 338 337 335 337 335 333 336 337 339 338 338 338 338 337 338 336 329 337 338 338 338 336 336 336 335 333 329 327 325 321 318 316 316 315 314 312 311
333 333 332 334 334 333 330 330 330 332 337 338 337 337 334 333 333 331 329 327 329 327 326 324 324 324 322 321 320 318 316 314 313 311 311 311 310 309
330 330 331 332 331 330 331 329 328 328 330 334 335 335 334 335 333 328 322 320 320 321 319 318 316 314 314 313 312 312 311 311 311 312 312 310 309 308
332 331 331 331 332 332 329 329 328 329 329 332 332 332 332 332 332 331 325 324 320 319 320 318 316 316 314 315 315 315 314 314 311 309 307 305 303 303
330 330 330 329 328 327 325 325 326 327 331 330 332 327 325 325 323 324 329 325 321 318 318 320 318 318 317 317 316 315 311 309 308 306 304 302 302 301
326 323 321 317 320 319 320 322 323 326 329 331 324 319 317 318 320 318 318 320 319 317 315 315 319 319 319 318 316 310 308 308 306 305 303 303 302 302
323 319 317 319 318 315 313 311 310 311 314 317 313 309 310 309 314 314 315 315 318 317 316 315 312 311 310 309 309 309 308 307 306 305 303 303 303 303
314 316 319 319 316 313 309 313 312 311 311 310 310 310 310 309 308 312 310 310 310 312 311 312 312 311 309 308 307 309 308 305 306 304 303 302 303 302
311 313 316 317 314 315 314 314 313 312 311 311 311 310 310 309 308 309 309 308 308 310 308 308 308 306 307 307 306 306 305 306 304 304 303 303 303 302
307 307 308 310 313 312 310 309 309 309 309 310 311 310 310 306 304 304 304 304 306 308 307 306 306 305 305 305 304 303 303 302 302 302 304 304 304 302
310 309 311 312 311 309 308 309 309 310 311 307 306 304 303 303 303 303 303 302 302 301 302 300 302 302 303 303 303 302 301 301 301 304 303 302 301 300
308 305 304 305 305 305 305 306 305 306 302 302 301 300 300 299 299 299 299 298 300 302 303 303 300 301 302 302 300 300 300 300 302 301 300 299 299 300
304 303 303 303 303 303 302 301 302 301 301 300 299 298 297 297 296 296 297 298 298 299 302 304 303 300 300 299 298 299 300 301 299 300 299 299 299 299
304 304 304 304 303 303 302 300 300 300 299 299 298 298 297 296 296 295 296 297 297 298 303 304 304 302 301 300 300 299 299 298 298 299 299 298 298 298
304 303 302 301 301 300 300 300 300 299 299 299 298 298 297 296 295 295 297 297 298 297 298 299 299 299 298 297 299 299 298 298 299 298 298 298 298 298
303 302 302 301 301 301 301 300 299 299 300 298 297 297 296 295 295 296 296 297 297 297 297 298 299 298 296 294 296 298 298 298 299 298 297 297 297 298
301 301 301 301 301 300 299 299 298 298 297 297 297 295 295 294 295 295 295 295 296 297 298 298 298 297 296 296 297 298 299 299 298 297 297 297 297 298
301 300 300 299 299 298 298 298 298 298 297 297 295 294 294 294 294 294 295 296 297 297 297 297 297 297 297 297 297 298 298 298 298 297 297 297 298 297
299 299 299 298 298 297 297 297 297 298 297 295 294 294 294 294 294 294 294 294 296 296 295 295 295 294 295 295 296 296 297 298 297 297 297 298 298 296
299 298 298 298 298 297 297 297 297 296 295 295 294 294 293 293 294 293 293 294 295 294 293 293 293 293 294 294 294 295 297 297 296 296 296 297 297 298
Wind_Speed
18 17 23 15 14 11 11 7 5 1 2 0 3 15 17 18 19 16 16 14 15 14 13 13 11 11 10 9 10 10 10 10 11 11 10 11 10 10
18 18 14 10 7 10 12 10 4 6 2 3 5 7 10 17 15 12 7 11 13 13 11 11 11 11 12 11 10 10 10 10 10 9 9 9 8 7
14 15 14 11 8 12 9 9 5 3 4 3 7 8 12 14 12 9 11 14 15 13 11 11 12 11 10 9 9 9 9 9 8 7 5 4 3 3
13 14 10 11 6 12 17 13 7 3 3 8 8 7 5 6 7 6 9 11 15 13 11 11 10 10 10 9 8 9 8 7 5 3 2 1 2 4
21 19 16 11 10 9 15 20 22 19 12 2 5 8 9 5 13 10 9 11 11 11 9 8 8 8 7 6 5 5 4 3 3 1 1 4 6 8
14 13 12 13 10 4 5 8 14 15 16 10 7 7 2 10 18 20 14 11 13 11 10 7 6 6 5 5 5 4 3 3 4 7 9 11 13 14
3 1 2 3 7 5 3 5 5 5 6 5 4 1 2 4 4 8 14 14 11 9 9 8 7 7 7 6 5 4 4 5 9 12 13 12 11 10
10 9 8 6 5 5 8 7 4 1 3 5 2 11 11 8 6 6 16 11 5 6 6 2 9 8 6 6 5 3 2 6 10 9 8 10 10 9
12 12 11 12 15 10 8 13 15 14 5 11 19 15 17 12 10 12 11 10 6 5 3 8 9 8 7 6 5 2 3 6 8 7 8 10 10 12
12 11 10 9 12 13 17 23 25 26 22 22 20 18 15 11 9 9 8 7 6 7 2 2 3 5 3 1 3 5 4 6 7 4 4 5 6 8
18 17 17 20 14 13 17 21 23 22 19 18 17 16 13 12 11 6 15 12 7 6 7 4 5 4 4 6 6 4 3 8 9 4 4 4 5 5
21 22 21 18 18 17 19 19 21 14 10 10 12 14 13 13 13 12 10 13 9 3 7 7 5 5 1 8 5 3 5 8 4 3 7 10 10 10
21 21 20 16 17 16 14 13 12 10 9 11 11 10 9 16 14 14 12 6 1 1 4 7 4 3 2 3 2 7 6 5 5 7 8 8 6 6
18 15 12 9 8 9 11 10 7 8 8 12 14 13 9 6 8 5 4 5 3 2 4 2 2 2 3 3 3 9 10 7 9 2 5 5 5 6
15 16 16 15 14 14 12 10 8 8 12 13 13 12 10 8 8 8 5 6 3 9 10 6 1 4 3 4 6 9 10 6 2 4 9 13 9 10
17 14 12 11 13 11 11 9 12 13 12 11 11 10 10 10 10 8 6 7 8 9 5 10 5 2 3 8 7 9 9 4 6 7 12 10 8 8
8 6 6 5 6 6 8 12 10 9 10 13 10 11 11 11 11 11 9 9 7 9 2 10 9 8 10 11 14 11 2 6 8 11 10 9 11 10
10 13 13 10 8 8 8 6 8 12 9 10 10 10 10 11 11 13 11 8 8 10 10 5 2 2 7 7 7 3 5 5 7 9 11 11 10 11
11 11 8 6 4 2 6 10 12 11 7 7 8 7 9 9 11 13 12 7 8 10 8 12 6 5 4 2 8 8 7 9 9 10 9 10 12 13
13 12 9 10 13 12 10 8 7 6 9 5 9 10 11 11 12 13 11 11 8 11 10 7 5 7 3 2 6 18 14 12 10 11 10 11 12 11
11 10 8 7 3 4 5 5 5 3 3 6 10 11 11 10 12 11 12 13 8 10 9 4 6 5 8 10 11 18 11 8 5 11 15 17 16 16
11 8 7 3 4 5 4 3 8 5 4 9 9 10 11 11 11 10 11 13 13 5 8 9 8 10 10 13 15 16 18 4 6 9 10 13 14 4
6 2 8 1 11 8 5 3 7 9 10 7 4 7 9 14 7 7 7 12 11 9 10 10 11 11 13 16 17 18 4 5 12 14 16 8 14 12
Wind_Direction
196 193 205 198 246 268 288 312 212 166 263 350 176 207 216 223 206 204 205 196 204 202 209 217 220 216 216 215 218 217 219 221 224 223 227 233 238 247
176 169 184 204 259 283 306 292 352 165 167 180 96 150 182 194 193 183 199 206 196 199 206 210 201 201 201 200 199 202 208 211 215 219 222 228 230 233
182 181 186 190 291 336 330 331 302 281 141 126 133 121 149 192 170 148 203 207 195 199 204 199 198 199 198 201 210 211 210 210 208 200 201 190 217 240
132 158 146 167 134 78 68 42 44 67 124 155 163 199 174 200 135 172 200 203 190 181 188 189 193 196 196 188 179 177 173 164 159 163 200 258 291 303
111 108 97 110 99 80 58 49 40 38 37 228 135 148 141 164 145 154 159 155 149 153 153 152 159 172 170 166 176 180 172 170 156 121 339 318 306 300
102 96 83 73 64 39 14 24 33 31 31 24 48 78 95 188 159 156 152 143 133 126 121 112 133 150 147 154 152 147 134 87 37 3 339 322 310 304
147 132 73 73 64 63 33 351 350 18 9 357 25 74 272 276 147 173 164 145 146 153 151 150 157 169 167 162 153 142 100 15 355 343 335 333 333 323
118 111 109 103 91 58 68 54 30 20 254 250 319 106 84 91 82 96 149 140 127 137 152 193 194 194 200 189 170 144 10 358 1 2 10 8 6 7
96 90 91 99 103 98 105 103 82 68 70 165 120 99 86 76 88 79 75 92 101 100 103 83 166 145 200 212 194 264 346 23 20 11 15 13 21 21
109 104 96 116 143 110 103 91 83 78 80 90 92 85 78 71 72 80 61 60 86 108 91 122 110 118 135 165 260 288 330 12 354 343 17 15 11 19
99 97 107 112 107 104 101 94 85 81 77 76 80 80 73 66 65 89 55 63 58 43 29 32 11 356 7 327 295 297 345 333 320 295 332 308 297 304
98 92 91 106 114 107 103 101 93 80 64 67 72 67 68 61 56 58 47 40 24 7 19 26 11 22 105 68 75 10 304 294 267 284 315 312 284 268
94 87 84 94 99 98 95 84 81 95 81 62 67 61 94 80 54 40 41 55 248 204 317 336 320 350 11 356 29 30 61 28 352 327 317 292 270 282
97 80 77 77 89 83 76 72 67 64 62 71 81 92 85 55 36 65 81 53 8 287 275 160 127 337 315 328 336 348 1 4 355 80 40 28 358 330
97 89 81 78 77 78 72 63 44 58 71 72 67 59 66 65 68 60 61 26 341 294 269 238 48 30 62 335 320 327 332 328 341 37 15 7 352 342
99 93 93 90 79 81 77 69 62 58 60 54 47 44 49 45 49 34 18 358 343 356 246 243 237 209 288 310 303 306 322 321 33 360 350 353 351 328
94 86 74 93 96 85 92 78 67 44 48 51 56 41 28 24 16 8 355 349 353 359 215 220 247 263 280 311 296 277 336 348 347 353 358 356 343 328
99 92 91 78 72 76 81 98 59 41 68 41 38 35 26 20 9 1 10 9 37 31 19 15 294 213 341 356 23 149 6 339 328 322 332 333 333 335
123 118 119 129 134 96 87 81 57 47 41 49 27 25 29 22 3 358 5 47 26 355 327 339 127 92 31 296 296 276 303 302 283 297 328 331 325 336
128 124 106 82 88 76 62 50 35 33 14 40 31 42 26 13 3 360 4 359 344 345 341 4 91 34 358 283 299 312 322 286 250 277 297 313 300 308
149 142 138 128 88 18 53 30 353 283 64 32 46 30 18 10 357 5 360 359 333 317 331 17 331 345 334 310 294 302 314 243 286 309 315 302 291 290
83 88 152 129 175 120 108 8 343 317 140 79 51 25 13 2 359 5 0 356 353 6 359 20 19 5 348 334 311 312 325 260 283 318 338 355 296 254
72 52 23 310 146 131 92 22 355 132 115 96 60 16 8 0 14 2 339 336 340 27 47 15 0 345 336 329 328 329 15 31 2 350 346 344 345 299